Vertical_Velocity
1 -3 1 -5 -3 -1 2 -2 0 1 2 -1 -0 -1 0 -1 -1 -1 -2 -1 -1 -1 -4 -3 -1 -2 -3 -5 -1 -1 1 -3 -1 -1 -15 6 -8 5 3 -4 0 -2 2 7 -5 0 10
4 -2 -3 -1 -5 -2 1 -1 -1 2 2 0 -1 -1 1 -1 -1 -0 -2 -1 -3 -1 -4 -3 1 -3 -5 3 -0 1 5 -1 0 3 -16 -5 29 5 -0 -3 -10 6 2 3 9 2 -3
6 7 1 -6 3 -3 -2 0 1 1 1 2 -1 -2 -0 -1 1 -1 -3 -2 -3 -1 -4 -5 -1 0 -9 -2 -2 -6 0 -9 -6 -1 10 19 -10 -4 5 4 12 19 -15 25 5 -8 -11
3 7 5 -0 -7 -2 -3 -1 -0 2 1 1 0 -3 0 0 1 -0 -3 -3 -2 -2 -4 -6 -2 -1 -1 1 4 1 -5 -0 -2 -4 12 -15 -12 16 6 1 2 -1 8 -1 2 -2 17
4 1 13 1 -1 -3 3 -0 -0 1 0 1 -0 -1 -3 0 1 -0 -1 -2 -3 -3 -6 -7 1 -6 -3 2 -1 3 0 -6 -4 -6 -4 5 1 -5 2 6 2 5 -6 -2 -11 -17 0
1 5 -0 13 3 6 6 -2 1 -1 0 4 -2 -1 -3 1 0 -1 0 -3 -1 0 -6 -5 -4 -2 -0 1 1 -1 -3 -6 -3 -3 3 -2 0 -5 -0 -4 -6 -11 -4 -6 -14 -12 -1
1 1 2 1 9 -9 -1 -1 1 -2 1 4 -2 -1 -2 1 1 -1 -1 -2 -1 -7 -3 -8 -3 -1 0 -1 -2 -3 3 -1 -5 -7 -2 -3 -3 -2 1 -4 -1 7 -3 -3 0 -21 -14
2 -0 12 -3 10 -1 -4 -1 -1 -1 -0 2 0 -1 -2 1 -0 1 -1 -2 -1 -1 -5 -8 -5 -3 -2 2 0 -1 -1 -0 -3 -3 -5 -1 -5 5 1 5 0 6 6 1 10 -0 13
-3 3 -2 17 -1 18 -2 3 6 1 -1 1 2 -1 -2 0 -0 2 -1 -2 -1 -2 -3 -6 -3 -2 -1 -0 -3 -2 -3 -3 2 -1 -6 -1 -5 -3 -3 2 4 1 -3 4 -2 4 6
3 -8 -5 15 -4 15 0 -7 10 1 -1 -0 3 -1 1 -2 -2 1 -1 -1 -2 -1 -2 -2 -4 -4 -1 1 -2 -1 -1 -1 -0 2 0 -2 -1 -0 -1 -0 -5 4 -0 10 0 0 -11
6 1 -4 4 34 1 16 6 9 -0 1 -1 2 2 -0 -1 0 0 0 -0 -1 -3 -6 -0 -2 -1 -2 -1 -2 -3 -3 2 -1 1 4 3 2 1 2 -5 6 6 -4 -1 6 8 1
-2 4 -5 -4 20 7 4 3 -0 -2 3 -2 1 4 -0 -1 -0 0 -1 0 -0 -2 -10 -2 -2 -1 -1 -2 -1 -2 -2 -1 -4 -1 -5 -2 -2 1 0 4 -0 5 4 2 1 5 -1
-2 4 -0 3 23 5 -9 38 -16 -2 4 -3 2 4 1 -1 0 -0 -2 -0 -3 -4 -1 -2 -4 -2 -1 -3 -6 -3 -1 -1 -1 -4 -4 -3 -4 -2 0 2 2 -1 6 0 -2 1 -7
-8 0 -1 0 17 7 -1 17 4 -2 1 -5 1 5 2 -1 0 0 -1 -1 -3 -3 -3 -3 -2 0 1 -3 -3 -1 -2 -2 -4 1 -0 1 -4 -7 -2 -9 -7 -3 -2 -7 -4 -2 -4
0 -2 -3 1 8 3 -3 35 3 5 -3 -4 -1 6 2 -0 0 1 -1 1 -3 -2 -2 -4 -4 -0 0 -1 -1 0 -1 -4 -6 -3 2 -1 -5 2 -0 7 0 -5 2 10 -1 1 1
-3 -4 6 -4 -2 26 6 20 -1 6 -1 -1 -3 5 2 -0 0 0 -0 0 -3 -2 -1 -2 -3 -0 -1 -0 -2 0 -1 2 -4 0 5 1 -3 -4 3 6 3 1 -1 5 -0 -2 -1
-7 -8 9 -7 6 13 9 14 2 4 -3 -2 2 4 3 1 1 0 2 -0 -1 -1 -1 -3 -1 -2 -0 3 4 4 -2 -2 3 7 5 1 9 -3 5 -5 -11 -4 -2 3 -1 -0 -4
0 -19 11 8 3 2 19 41 -8 7 -6 -2 5 3 4 2 2 0 -0 -1 -1 2 0 -1 -0 3 1 2 0 7 -0 6 -2 0 -9 16 12 -3 -13 -2 4 4 2 1 -0 -0 -1
0 -3 1 13 9 20 2 39 13 7 -5 3 6 5 2 0 1 0 -0 -1 1 0 1 -1 3 -0 5 -0 -3 1 2 5 -5 4 -1 4 11 2 13 5 4 8 -3 2 3 -0 -3
5 10 2 -11 1 15 9 10 -6 12 -10 -3 4 5 1 -1 1 -1 -0 -0 1 0 -2 -2 1 0 -0 -2 5 -2 -1 3 -3 -1 6 3 1 7 -2 8 0 -4 -3 0 2 4 -4
5 -1 10 0 4 5 15 18 5 13 -13 -0 -1 2 2 -5 -3 1 -1 -1 -1 0 -1 3 2 1 -3 -1 -4 -4 -0 5 2 -3 6 6 0 -6 -4 0 -2 8 1 1 -3 8 -6
6 -6 12 1 6 -4 1 38 7 11 -10 -1 -4 -0 2 -2 1 1 -3 -2 -2 -4 0 -1 -0 2 4 4 1 -6 3 4 -2 -4 4 -1 3 5 -7 7 -7 1 -1 -6 -5 -5 2
-7 3 -4 14 -2 10 12 24 8 -17 -3 1 2 12 -0 -2 2 0 -1 -3 -1 1 -1 1 2 4 3 2 -0 -0 2 -2 2 4 1 -1 -2 -1 1 -15 8 5 -11 -7 5 3 2
1 2 -6 6 5 -4 46 1 7 -16 2 11 8 8 -7 -8 2 -0 -2 -1 -3 0 -0 -3 -1 0 -3 -0 -2 -2 -2 -0 1 3 3 1 1 -4 -5 5 -2 1 8 -4 -3 11 8
-9 0 -11 4 5 7 13 1 0 -2 -2 4 2 7 -13 6 3 -1 0 0 -2 -2 -1 1 -0 0 -2 -2 -2 -0 -2 -1 -2 -1 -2 1 2 0 -1 2 -4 -7 2 4 -0 -2 5
-1 -4 -8 -7 7 11 16 -12 -1 0 2 2 3 9 4 -9 -5 -0 -1 -1 -1 -1 -1 3 -1 -1 -3 -4 -3 -3 -3 0 2 3 -2 1 1 3 0 2 -1 -3 2 1 4 -2 3
-5 -2 -4 -13 -3 23 11 43 -6 -2 11 6 1 8 2 1 1 1 -1 -1 -0 -1 -0 1 -0 -2 -3 -3 -1 -2 -2 1 -1 1 -1 -3 -3 -7 -3 2 -4 6 2 -2 -0 -1 -3
-2 -5 -12 -10 9 -4 6 5 -2 2 4 -1 -3 6 3 5 -0 -0 3 0 -2 -0 2 1 -1 -1 -2 -2 -1 -2 -3 -1 -1 1 -0 -0 -1 -3 1 1 -2 6 13 11 1 2 2
-2 3 -4 -1 20 4 5 5 -3 6 6 5 -6 2 4 6 -1 1 -2 1 -1 -1 -1 -1 -0 -1 -4 -2 -1 -2 -2 -2 -1 -1 0 -0 -2 -1 6 1 7 0 -3 5 2 -4 -4
Height
3143 3140 3137 3134 3131 3127 3123 3119 3115 3112 3107 3103 3099 3095 3091 3086 3080 3074 3069 3064 3058 3054 3049 3045 3041 3038 3035 3033 3031 3028 3028 3031 3036 3040 3043 3046 3052 3060 3065 3069 3074 3078 3087 3091 3096 3100 3108
3139 3137 3135 3132 3129 3125 3121 3118 3113 3109 3105 3101 3097 3093 3089 3085 3080 3074 3069 3064 3058 3054 3050 3045 3042 3038 3036 3036 3032 3030 3032 3034 3039 3042 3044 3045 3052 3062 3067 3071 3076 3081 3087 3091 3093 3101 3104
3134 3132 3132 3129 3127 3123 3120 3115 3112 3107 3104 3099 3095 3091 3088 3083 3079 3074 3069 3064 3059 3055 3051 3047 3044 3041 3038 3038 3035 3033 3035 3039 3041 3046 3049 3052 3054 3062 3068 3072 3078 3078 3084 3087 3095 3100 3105
3130 3127 3126 3126 3123 3120 3118 3113 3110 3105 3102 3098 3094 3090 3087 3082 3078 3074 3070 3065 3060 3057 3053 3049 3046 3043 3041 3039 3039 3038 3040 3042 3046 3049 3053 3057 3060 3065 3069 3072 3077 3081 3086 3090 3095 3099 3100
3124 3122 3119 3120 3119 3117 3114 3111 3107 3103 3099 3096 3092 3089 3085 3081 3077 3074 3070 3066 3062 3058 3055 3051 3048 3045 3045 3042 3043 3043 3045 3046 3051 3055 3059 3062 3065 3069 3072 3074 3079 3082 3083 3087 3093 3097 3100
3118 3117 3114 3112 3113 3112 3111 3108 3105 3101 3097 3094 3089 3087 3084 3080 3076 3073 3071 3067 3065 3062 3057 3054 3050 3051 3050 3048 3046 3047 3049 3050 3053 3056 3059 3063 3066 3070 3074 3076 3078 3080 3085 3092 3095 3098 3100
3111 3109 3109 3107 3106 3107 3107 3104 3101 3098 3095 3091 3087 3085 3082 3079 3075 3072 3071 3069 3069 3066 3062 3057 3056 3053 3053 3052 3052 3051 3052 3053 3056 3059 3060 3064 3068 3071 3074 3078 3082 3084 3088 3093 3096 3099 3102
3102 3103 3102 3101 3100 3099 3102 3099 3098 3095 3092 3089 3085 3082 3080 3078 3074 3071 3070 3068 3067 3068 3064 3061 3060 3058 3056 3055 3055 3055 3056 3057 3058 3058 3060 3065 3067 3071 3074 3078 3080 3082 3085 3090 3095 3098 3100
3090 3092 3092 3092 3093 3093 3093 3094 3093 3091 3088 3086 3082 3080 3078 3076 3073 3070 3069 3068 3066 3066 3065 3065 3063 3062 3060 3060 3059 3059 3061 3060 3061 3062 3061 3064 3068 3069 3071 3074 3077 3080 3084 3088 3090 3091 3093
3075 3079 3081 3082 3085 3084 3087 3087 3088 3087 3085 3083 3079 3078 3075 3075 3074 3069 3068 3066 3065 3065 3067 3069 3066 3065 3064 3062 3061 3061 3062 3063 3062 3063 3064 3067 3069 3070 3072 3073 3076 3080 3083 3086 3086 3088 3092
3060 3067 3068 3071 3074 3076 3079 3079 3081 3082 3081 3079 3077 3075 3073 3072 3071 3068 3068 3065 3065 3066 3070 3070 3067 3065 3063 3065 3064 3063 3063 3064 3065 3066 3066 3067 3067 3069 3071 3074 3077 3079 3079 3082 3085 3088 3089
3043 3050 3057 3060 3063 3066 3069 3073 3075 3076 3076 3075 3074 3072 3070 3070 3069 3068 3065 3064 3065 3068 3068 3068 3067 3065 3064 3063 3064 3063 3063 3064 3065 3066 3065 3066 3067 3068 3070 3072 3074 3077 3079 3081 3082 3084 3087
3026 3032 3044 3047 3051 3055 3057 3064 3068 3070 3071 3070 3071 3069 3068 3067 3067 3066 3064 3064 3066 3065 3069 3068 3065 3064 3063 3063 3062 3062 3062 3063 3065 3065 3064 3065 3066 3066 3067 3070 3072 3076 3077 3079 3084 3086 3083
3013 3013 3028 3033 3039 3044 3049 3053 3060 3064 3066 3065 3067 3066 3065 3065 3065 3064 3063 3064 3064 3065 3065 3064 3064 3063 3062 3062 3062 3061 3061 3062 3062 3063 3062 3063 3064 3065 3065 3067 3070 3072 3075 3076 3078 3081 3078
2993 2995 3008 3018 3026 3030 3038 3043 3051 3055 3059 3060 3062 3063 3063 3063 3062 3062 3063 3062 3062 3063 3063 3062 3062 3061 3061 3060 3061 3060 3058 3058 3058 3060 3062 3061 3060 3059 3061 3064 3067 3069 3070 3074 3072 3074 3075
2980 2984 2992 3005 3016 3019 3028 3034 3040 3048 3053 3055 3057 3059 3060 3060 3060 3061 3062 3061 3060 3061 3061 3061 3061 3061 3059 3059 3059 3058 3056 3055 3054 3056 3058 3058 3057 3056 3058 3060 3062 3063 3068 3071 3071 3072 3072
2970 2974 2980 2991 3001 3009 3019 3026 3030 3039 3047 3049 3052 3055 3056 3057 3058 3059 3060 3058 3059 3059 3059 3060 3059 3058 3057 3057 3056 3055 3054 3054 3053 3053 3054 3052 3054 3053 3053 3051 3053 3059 3061 3065 3067 3068 3067
2957 2963 2968 2978 2988 2999 3010 3016 3024 3032 3040 3044 3047 3051 3053 3054 3056 3056 3057 3057 3057 3057 3057 3057 3056 3055 3054 3054 3053 3052 3052 3051 3049 3048 3046 3046 3045 3045 3046 3046 3051 3053 3055 3058 3060 3062 3063
2947 2951 2960 2966 2978 2988 2999 3008 3015 3023 3035 3039 3041 3047 3048 3050 3051 3053 3054 3055 3054 3054 3055 3054 3053 3052 3051 3050 3051 3048 3049 3047 3045 3043 3042 3042 3039 3041 3041 3045 3043 3043 3046 3051 3056 3056 3056
2937 2941 2951 2958 2967 2981 2992 2999 3009 3017 3029 3033 3038 3042 3043 3046 3048 3050 3051 3052 3053 3053 3052 3051 3050 3048 3047 3046 3047 3045 3044 3042 3041 3040 3041 3039 3035 3034 3037 3036 3037 3040 3042 3046 3051 3049 3052
2932 2936 2943 2949 2960 2970 2981 2991 3003 3011 3021 3026 3031 3037 3038 3041 3044 3046 3049 3050 3050 3050 3050 3048 3046 3044 3042 3041 3041 3039 3038 3036 3035 3034 3035 3034 3034 3034 3033 3034 3035 3035 3037 3040 3042 3044 3047
2924 2931 2936 2944 2953 2964 2972 2986 2996 3006 3014 3019 3026 3032 3035 3040 3042 3044 3046 3047 3048 3048 3047 3044 3042 3040 3039 3037 3036 3033 3033 3031 3029 3027 3027 3028 3031 3030 3026 3030 3031 3031 3033 3036 3038 3040 3041
2919 2924 2929 2937 2948 2956 2969 2979 2989 2998 3008 3012 3022 3027 3034 3037 3039 3042 3044 3045 3045 3044 3043 3041 3039 3037 3034 3032 3031 3030 3028 3028 3025 3023 3024 3026 3027 3029 3026 3024 3023 3028 3024 3029 3030 3031 3033
2914 2918 2927 2933 2940 2950 2960 2974 2984 2995 3006 3014 3019 3026 3031 3035 3037 3039 3041 3042 3042 3042 3040 3037 3035 3032 3031 3028 3028 3027 3027 3026 3024 3021 3021 3024 3026 3029 3027 3025 3024 3022 3023 3024 3023 3025 3028
2911 2913 2923 2929 2935 2945 2955 2970 2980 2993 3001 3008 3016 3022 3028 3031 3034 3036 3038 3039 3039 3038 3036 3033 3031 3029 3027 3026 3027 3026 3026 3025 3023 3021 3020 3023 3025 3027 3027 3026 3025 3023 3023 3022 3021 3022 3022
2909 2913 2919 2925 2933 2943 2954 2966 2977 2987 2997 3005 3013 3018 3024 3030 3032 3034 3035 3036 3036 3035 3033 3030 3027 3025 3026 3025 3025 3025 3026 3024 3023 3022 3021 3022 3023 3025 3024 3024 3025 3023 3021 3021 3021 3022 3021
2906 2910 2915 2923 2928 2939 2951 2961 2973 2983 2994 3001 3009 3014 3021 3026 3028 3030 3032 3033 3033 3031 3029 3026 3024 3023 3024 3024 3023 3024 3025 3024 3024 3023 3022 3023 3023 3024 3025 3023 3021 3022 3022 3021 3021 3025 3020
2900 2903 2910 2917 2927 2931 2945 2955 2969 2979 2989 2996 3004 3011 3018 3021 3025 3027 3029 3030 3029 3028 3026 3023 3023 3021 3022 3022 3022 3022 3022 3023 3023 3023 3023 3023 3022 3021 3021 3022 3022 3019 3021 3021 3019 3018 3018
2895 2900 2907 2914 2922 2930 2940 2951 2965 2975 2986 2993 3000 3009 3014 3019 3023 3024 3025 3026 3025 3024 3022 3020 3020 3018 3019 3020 3021 3021 3021 3021 3021 3021 3022 3022 3021 3020 3020 3018 3016 3014 3012 3014 3016 3017 3017